[[{"header":{"parameterUnit":"m.s-1","parameterCategory":1,"la1":30.2991,"la2":30.254,"lo1":-89.0895,"lo2":-89.0444,"dy":0.0017,"dx":0.0017,"nx":28,"ny":28,"refTime":"2024-03-12T21:00:00:Z","depth":0,"parameterNumber":2,"parameterNumberName":"U-component_of_WINDS"},"data":[0,0,0,0,0,0,0,0,0,0,0,0,0,0,0,0,0,0,0,0,0,0,0,0,0,0,0,0,0,0,0,0,0,0,0,0,0,0,0,0,0,0,0,0,0,0,0,0,0,0,0,0,0,0,0,0,0,0,-4.6084,-4.6085,0,-4.6171,-4.6172,-4.6173,-4.6121,-4.6118,-4.6116,-4.6113,-4.6203,-4.6207,-4.6212,0,0,0,0,0,0,0,0,0,0,0,0,0,-4.5874,-4.5878,-4.6084,-4.6085,-4.6086,-4.6171,-4.6172,-4.6173,-4.6121,-4.6118,-4.6115,-4.6112,-4.6201,-4.6207,-4.6212,0,0,0,0,0,0,0,0,0,0,0,0,0,-4.5964,-4.5879,-4.6084,-4.607,-4.607,-4.6171,-4.6172,-4.6174,-4.6122,-4.6118,-4.6114,-4.6111,-4.6199,-4.6206,-4.6213,-4.6332,0,0,-4.6235,-4.6238,0,0,0,0,0,0,0,0,-4.5959,-4.5971,-4.6071,-4.6072,-4.6071,-4.6131,-4.6131,-4.6227,-4.6123,-4.6102,-4.6113,-4.6109,-4.6182,-4.619,-4.6215,-4.6336,-4.634,-4.6235,-4.6239,-4.6242,-4.6244,0,0,0,0,0,0,0,-4.5952,-4.5967,-4.6118,-4.6073,-4.6073,-4.6061,-4.6069,-4.6149,-4.6162,-4.6104,-4.61,-4.6111,-4.6181,-4.6208,-4.6216,-4.6341,-4.6235,-4.6241,-4.6246,-4.6248,-4.6565,-4.6569,0,0,0,0,0,0,-4.5947,-4.5962,-4.6116,-4.6121,-4.6005,-4.6067,-4.6077,-4.6116,-4.6161,-4.6164,-4.6114,-4.6108,-4.6198,-4.6208,-4.6219,-4.636,-4.6242,-4.6249,-4.6253,-4.656,-4.6565,-4.657,0,0,0,0,0,0,-4.5943,-4.5961,-4.6112,-4.6041,-4.6059,-4.6075,-4.6119,-4.612,-4.6146,-4.6169,-4.6171,-4.6139,-4.6195,-4.6209,-4.6304,-4.6363,-4.6252,-4.6259,-4.6556,-4.6562,-4.6568,-4.6644,0,0,0,0,0,0,-4.5937,-4.596,-4.6005,-4.6042,-4.6063,-4.6195,-4.6123,-4.6124,-4.6159,-4.6152,-4.6193,-4.6196,-4.6193,-4.6294,-4.6311,-4.6371,-4.6264,-4.655,-4.6558,-4.6566,-4.6637,-4.6652,-4.6666,0,0,0,0,0,-4.593,-4.6023,-4.6007,-4.6026,-4.6119,-4.6199,-4.6211,-4.6206,-4.6164,-4.6209,-4.6224,-4.6195,-4.6355,-4.6304,-4.6323,-4.6385,-4.6546,-4.6556,-4.6565,-4.663,-4.6649,-4.6666,0,0,0,0,0,0,-4.5991,-4.6027,-4.601,-4.6118,-4.6156,-4.619,-4.6246,-4.6226,-4.6276,-4.6268,-4.626,-4.627,-4.6368,-4.6387,-4.633,-4.6503,-4.6444,-4.6458,-4.6487,-4.6505,-4.652,-4.6512,-4.627,0,0,0,0,0,-4.6017,-4.6079,-4.6107,-4.62,-4.622,-4.623,-4.6265,-4.6258,-4.6296,-4.6312,-4.6333,-4.6372,-4.6431,-4.647,-4.6525,-4.6641,-4.6648,-4.6693,-4.6708,-4.672,-4.673,-4.6793,-4.6812,-4.6601,-4.6601,-4.6601,0,0,-4.6072,-4.6099,-4.6138,-4.6213,-4.6241,-4.6305,-4.6244,-4.6314,-4.6361,-4.6322,-4.6412,-4.6431,-4.6473,-4.6579,-4.6626,-4.6597,-4.6791,-4.6732,-4.6741,-4.6745,-4.6804,-4.6824,-4.6842,-4.6607,-4.6606,-4.6605,0,0,-4.6202,-4.623,-4.631,-4.634,-4.6384,-4.6391,-4.6411,-4.6448,-4.6458,-4.655,-4.6522,-4.6579,-4.6681,-4.6712,-4.6741,-4.6888,-4.6863,-4.6907,-4.6982,-4.7043,-4.7059,-4.7074,-4.7124,-4.7143,-4.6918,-4.6918,-4.6918,0,-4.6264,-4.6359,-4.6354,-4.6426,-4.6459,-4.6429,-4.651,-4.654,-4.66,-4.6624,-4.6591,-4.6718,-4.6745,-4.6857,-4.6893,-4.6919,-4.694,-4.69,-4.7057,-4.7072,-4.7086,-4.7134,-4.7153,-4.6923,-4.6922,-4.6922,-4.6922,0,-4.6432,-4.6498,-4.6558,-4.6616,-4.6657,-4.6734,-4.674,-4.6783,-4.6774,-4.6784,-4.6878,-4.691,-4.6971,-4.6998,-4.6989,-4.711,-4.709,-4.7058,-4.6997,-4.7111,-4.7156,-4.7174,-4.693,-4.6928,-4.6927,-4.6926,0,0,-4.66,-4.6657,-4.6678,-4.6705,-4.6753,-4.6804,-4.688,-4.694,-4.6976,-4.702,-4.7082,-4.7171,-4.7142,-4.7175,-4.7171,-4.7225,-4.7337,-4.7185,-4.7186,-4.7211,-4.747,-4.7492,-4.7513,-4.7323,-4.7326,-4.7329,-4.7466,0,-4.6732,-4.6863,-4.6862,-4.6984,-4.7045,-4.7019,-4.7085,-4.7122,-4.7135,-4.7189,-4.7204,-4.7265,-4.7223,-4.7243,-4.7296,-4.7312,-4.7389,-4.7303,-4.738,-4.7382,-4.7366,-4.7537,-4.756,-4.7688,-4.7484,-4.7487,-4.7489,0,-4.6902,-4.6952,-4.7079,-4.7119,-4.7145,-4.7204,-4.726,-4.7312,-4.7354,-4.736,-4.7399,-4.7387,-4.7464,-4.7405,-4.7511,-4.7453,-4.7485,-4.7499,-4.7504,-4.7508,-4.744,-4.7544,-4.7728,-4.7746,-4.7517,-4.7515,-4.7513,0,-4.701,-4.7109,-4.7197,-4.7221,-4.727,-4.7313,-4.7335,-4.7373,-4.741,-4.746,-4.7483,-4.7542,-4.7573,-4.7619,-4.7623,-4.7579,-4.773,-4.7671,-4.7736,-4.7736,-4.7766,-4.7763,-4.7956,-4.7792,-4.7792,-4.7791,-4.7791,0,-4.7155,-4.7234,-4.7246,-4.7301,-4.7388,-4.7388,-4.7475,-4.7494,-4.7529,-4.7587,-4.7569,-4.7624,-4.7628,-4.7685,-4.7689,-4.7776,-4.7791,-4.7797,-4.7797,-4.7797,-4.7796,-4.7815,-4.7805,-4.7796,-4.7795,-4.7794,-4.7794,0,-4.7288,-4.73,-4.7395,-4.7434,-4.7446,-4.7509,-4.7543,-4.7595,-4.7608,-4.7682,-4.7699,-4.7719,-4.7785,-4.7795,-4.7872,-4.7875,-4.7979,-4.7971,-4.7964,-4.7962,-4.8026,-4.8019,-4.8235,-4.8263,-4.8084,-4.8085,-4.8087,0,-4.7378,-4.7438,-4.7485,-4.7522,-4.7547,-4.7608,-4.7646,-4.7649,-4.7689,-4.7743,-4.7789,-4.7853,-4.7904,-4.8011,-4.8033,-4.8092,-4.8084,-4.8156,-4.8092,-4.8091,-4.8082,-4.8077,-4.8083,-4.8166,-4.8168,-4.817,-4.8171,0,-4.7537,-4.7541,-4.7595,-4.7653,-4.7699,-4.7744,-4.7787,-4.782,-4.7828,-4.7875,-4.7942,-4.7982,-4.8062,-4.8126,-4.8185,-4.8209,-4.8192,-4.8192,-4.8209,-4.8208,-4.8201,-4.8204,-4.7995,-4.8186,-4.8184,-4.8183,-4.8182,-4.8182,-4.765,-4.7702,-4.7743,-4.7805,-4.7838,-4.7879,-4.793,-4.795,-4.8006,-4.8071,-4.807,-4.8144,-4.8186,-4.8264,-4.8293,-4.8351,-4.8327,-4.8353,-4.8359,-4.8365,-4.837,-4.8195,-4.8362,-4.8362,-4.8361,-4.8361,-4.8361,0,-4.7806,-4.7831,-4.7889,-4.795,-4.7999,-4.798,-4.8028,-4.807,-4.8135,-4.8176,-4.8227,-4.8305,-4.8368,-4.8396,-4.8457,-4.8499,-4.8492,-4.8515,-4.851,-4.8515,-4.8389,-4.8366,-4.8519,-4.8519,-4.8519,-4.8519,-4.8519,-4.8518,-4.7892,-4.7979,-4.7988,-4.8091,-4.8117,-4.8188,-4.8217,-4.8255,-4.8288,-4.8375,-4.8427,-4.8446,-4.8482,-4.8546,-4.8603,-4.861,-4.8632,-4.8657,-4.866,-4.8541,-4.8524,-4.8509,-4.8487,-4.8663,-4.8663,-4.8782,-4.8783,-4.8784]},{"header":{"parameterUnit":"m.s-1","parameterCategory":1,"la1":30.2991,"la2":30.254,"lo1":-89.0895,"lo2":-89.0444,"dy":0.0017,"dx":0.0017,"nx":28,"ny":28,"refTime":"2024-03-12T21:00:00:Z","depth":0,"parameterNumber":3,"parameterNumberName":"V-component_of_WINDS"},"data":[0,0,0,0,0,0,0,0,0,0,0,0,0,0,0,0,0,0,0,0,0,0,0,0,0,0,0,0,0,0,0,0,0,0,0,0,0,0,0,0,0,0,0,0,0,0,0,0,0,0,0,0,0,0,0,0,0,0,2.1862,2.1863,0,2.1944,2.1945,2.1946,2.1971,2.197,2.197,2.197,2.2049,2.2052,2.2054,0,0,0,0,0,0,0,0,0,0,0,0,0,2.1726,2.1728,2.1862,2.1863,2.1864,2.1944,2.1945,2.1946,2.1971,2.197,2.197,2.1969,2.2049,2.2051,2.2054,0,0,0,0,0,0,0,0,0,0,0,0,0,2.1794,2.1729,2.1862,2.1886,2.1889,2.1944,2.1945,2.1947,2.1971,2.197,2.197,2.1969,2.2048,2.2051,2.2055,2.209,0,0,2.2066,2.2068,0,0,0,0,0,0,0,0,2.179,2.1799,2.1882,2.1885,2.1888,2.1947,2.1926,2.1995,2.1971,2.194,2.1969,2.1969,2.2015,2.2022,2.2038,2.2094,2.2097,2.2067,2.2069,2.2071,2.2072,0,0,0,0,0,0,0,2.1785,2.1795,2.1895,2.1883,2.1887,2.1893,2.1902,2.1939,2.198,2.1942,2.1944,2.1954,2.2017,2.2035,2.204,2.2098,2.2067,2.207,2.2072,2.2074,2.219,2.219,0,0,0,0,0,0,2.1777,2.1791,2.1892,2.1897,2.1837,2.1895,2.1906,2.1928,2.198,2.1987,2.1954,2.1955,2.2029,2.2036,2.2043,2.209,2.2071,2.2074,2.2076,2.2189,2.219,2.2191,0,0,0,0,0,0,2.1774,2.1785,2.1889,2.1845,2.1858,2.1899,2.1924,2.193,2.1948,2.1989,2.1996,2.1965,2.2028,2.2038,2.2079,2.2093,2.2076,2.2079,2.2188,2.2189,2.219,2.2181,0,0,0,0,0,0,2.177,2.1784,2.1798,2.1845,2.1861,2.1924,2.1925,2.1932,2.1955,2.1956,2.2001,2.2007,2.2029,2.2073,2.2083,2.2097,2.2082,2.2187,2.2188,2.219,2.218,2.2182,2.2183,0,0,0,0,0,2.1765,2.1791,2.1799,2.1811,2.1879,2.1924,2.1933,2.1958,2.1956,2.197,2.1997,2.2006,2.209,2.2077,2.2088,2.2104,2.2186,2.2188,2.219,2.218,2.2182,2.2183,0,0,0,0,0,0,2.1742,2.1797,2.1807,2.1849,2.1882,2.1928,2.1947,2.1959,2.1992,2.1992,2.2021,2.2031,2.207,2.2091,2.2077,2.2142,2.2138,2.2142,2.2127,2.2129,2.213,2.2124,2.2085,0,0,0,0,0,2.1743,2.1776,2.1822,2.1854,2.1871,2.1906,2.1927,2.1944,2.1979,2.1992,2.2022,2.2054,2.2088,2.211,2.2143,2.2184,2.2194,2.22,2.2202,2.2203,2.2206,2.2231,2.2234,2.2197,2.2197,2.2197,0,0,2.1743,2.1777,2.1796,2.1851,2.1879,2.1912,2.1918,2.1952,2.1977,2.1997,2.2039,2.2061,2.21,2.2142,2.2161,2.216,2.2219,2.2205,2.2206,2.2208,2.2233,2.2237,2.224,2.2198,2.2198,2.2198,0,0,2.1761,2.179,2.1821,2.185,2.1893,2.1917,2.1924,2.197,2.1986,2.2029,2.2045,2.2075,2.2133,2.216,2.2181,2.2213,2.2223,2.2223,2.223,2.2254,2.2257,2.226,2.2272,2.2276,2.2226,2.2226,2.2226,0,2.1755,2.1807,2.1836,2.1871,2.1895,2.1917,2.195,2.1975,2.2026,2.2042,2.2041,2.2115,2.2142,2.2192,2.22,2.2216,2.2226,2.2218,2.2255,2.2258,2.2261,2.2273,2.2277,2.2226,2.2226,2.2226,2.2226,0,2.1799,2.1835,2.1855,2.1906,2.1933,2.1966,2.2,2.2023,2.2039,2.2063,2.2107,2.2141,2.2182,2.2195,2.2209,2.2247,2.2246,2.2249,2.2246,2.2264,2.2276,2.228,2.2226,2.2226,2.2226,2.2226,0,0,2.1803,2.1872,2.1879,2.1904,2.1954,2.1982,2.2017,2.2059,2.2079,2.2114,2.2144,2.2194,2.2199,2.2223,2.2241,2.2262,2.2287,2.2263,2.2265,2.2267,2.2332,2.2329,2.2334,2.2294,2.2295,2.2296,2.2329,0,2.1828,2.1892,2.192,2.1972,2.2006,2.2029,2.206,2.2094,2.2118,2.215,2.2176,2.2211,2.2214,2.2229,2.2251,2.2279,2.23,2.2277,2.2322,2.2323,2.2312,2.234,2.2337,2.2367,2.2334,2.2335,2.2335,0,2.1864,2.1902,2.1958,2.2007,2.2022,2.2049,2.2092,2.2122,2.2162,2.2178,2.2207,2.2225,2.2262,2.2257,2.231,2.2293,2.2314,2.233,2.2332,2.2337,2.233,2.2346,2.2377,2.2381,2.2343,2.2342,2.2342,0,2.1863,2.1928,2.197,2.199,2.2048,2.2067,2.2091,2.213,2.2155,2.2192,2.2209,2.2249,2.2271,2.2302,2.233,2.2323,2.238,2.2377,2.2395,2.2394,2.2405,2.2404,2.2439,2.2418,2.2418,2.2418,2.2417,0,2.1888,2.1921,2.1971,2.1996,2.2035,2.2067,2.2104,2.213,2.2166,2.2197,2.2219,2.2248,2.2283,2.2316,2.2339,2.238,2.2389,2.2403,2.2409,2.2401,2.24,2.2415,2.2413,2.2419,2.2419,2.2418,2.2418,0,2.1892,2.1927,2.1975,2.2026,2.204,2.2066,2.211,2.2137,2.2163,2.2202,2.2214,2.2254,2.2295,2.2327,2.2378,2.2394,2.2437,2.2443,2.2424,2.2427,2.2444,2.2442,2.249,2.2498,2.2471,2.2471,2.2471,0,2.1906,2.1932,2.1988,2.2012,2.2037,2.2074,2.21,2.2134,2.216,2.2209,2.2229,2.2272,2.2308,2.2372,2.2406,2.2446,2.2453,2.2468,2.2459,2.2452,2.2455,2.2453,2.2456,2.2468,2.2469,2.2469,2.2469,0,2.1926,2.1943,2.1981,2.2025,2.2057,2.2093,2.2129,2.2147,2.2187,2.2216,2.2259,2.2287,2.2342,2.2385,2.2429,2.2454,2.2468,2.2472,2.2478,2.2471,2.2459,2.2467,2.2428,2.247,2.247,2.247,2.247,2.247,2.1936,2.1962,2.2006,2.2048,2.208,2.2114,2.2142,2.2173,2.221,2.2259,2.2276,2.2321,2.2362,2.2424,2.2449,2.2484,2.2485,2.2494,2.2496,2.2498,2.2498,2.2454,2.2492,2.2492,2.2492,2.2492,2.2492,0,2.1959,2.1989,2.2028,2.208,2.2113,2.2126,2.2168,2.2194,2.2234,2.2272,2.2308,2.2358,2.24,2.2438,2.2482,2.2503,2.2511,2.2513,2.2512,2.2518,2.2494,2.2485,2.2507,2.2507,2.2507,2.2507,2.2507,2.2507,2.1975,2.2019,2.2042,2.2103,2.2133,2.2178,2.2201,2.2233,2.2264,2.232,2.2356,2.2381,2.242,2.2467,2.2506,2.2516,2.2531,2.2532,2.2544,2.2521,2.2519,2.2518,2.2509,2.2535,2.2535,2.2565,2.2565,2.2566]}]]